Regional Weather Roundup
Issued by NWS

Home | Current Version | Previous Version | Text Only | Print | Product List | Glossary On
Versions: 1 2 3 4 5 6 7 8 9 10 11 12 13 14 15 16 17 18 19 20 21 22 23 24 25 26 27 28 29 30 31 32 33 34 35 36 37 38 39 40 41 42 43 44 45 46 47 48 49 50
000
ASUS43 KTOP 271459
RWRKS

WEATHER ROUNDUP FOR KANSAS
NATIONAL WEATHER SERVICE GOODLAND KS
900 AM CST FRI FEB 27 2015

NOTE:  "FAIR" INDICATES FEW OR NO CLOUDS BELOW 12,000 FEET WITH NO
SIGNIFICANT WEATHER AND/OR OBSTRUCTIONS TO VISIBILITY.

KSZ001>006-013>018-027>032-041>047-271600-
NORTHWEST KANSAS

CITY           SKY/WX    TMP DP  RH WIND       PRES   REMARKS
GOODLAND       LGT SNOW  10   6  84 SE16      30.28S FOG     WCI  -7
HAYS           PTSUNNY   10  -6  48 SE9       30.51R
HILL CITY      CLOUDY    10   0  63 SE10      30.49R WCI  -4
RUSSELL        PTSUNNY   10   1  67 SE8       30.53R
$$

KSZ061>065-074>080-084>089-271600-
SOUTHWEST KANSAS

CITY           SKY/WX    TMP DP  RH WIND       PRES   REMARKS
DODGE CITY     LGT SNOW  11   6  81 SE10      30.44S VSB 1   WCI  -3
ELKHART          N/A     10   3  73 SE17        N/A  WCI  -8
GARDEN CITY    LGT SNOW  11   8  88 SE13      30.38S FOG     WCI  -4
GREAT BEND     CLOUDY    10  -2  56 E8        30.53R
LIBERAL        CLOUDY    12   7  79 E12       30.39R WCI  -2
$$

KSZ066>073-081>083-090>101-271600-
SOUTHEAST KANSAS

CITY           SKY/WX    TMP DP  RH WIND       PRES   REMARKS
CHANUTE        PTSUNNY   12   1  61 NE10      30.62S WCI  -1
COFFEYVILLE    CLOUDY    12   2  64 NE13      30.62R WCI  -3
HUTCHINSON     CLOUDY    11  -1  58 E6        30.58R
MEDICINE LODGE   N/A     12   7  80 E7        30.56R
NEWTON         CLOUDY     9  -4  56 E6        30.58R
PARSONS        CLOUDY    12   0  58 VRB7      30.63R
WICHITA INTL   CLOUDY    13  -2  51 NE8       30.59R
WICHITA JABRA  CLOUDY    11  -1  58 E9        30.59R
WINFIELD       CLOUDY    12  -1  56 NE9       30.62R
$$

KSZ007>012-019>026-033>040-048>060-102>105-271600-
NORTHEAST KANSAS

CITY           SKY/WX    TMP DP  RH WIND       PRES   REMARKS
CONCORDIA      MOSUNNY    8   3  80 CALM      30.58R
EMPORIA        CLOUDY     8   1  73 NE8       30.61R
LAWRENCE       SUNNY      8  -1  66 VRB3      30.68R
MANHATTAN      CLOUDY     9   3  77 VRB6      30.63S
OLATHE IND     FLURRIES   8  -1  66 VRB3      30.65R
OLATHE EXE     FAIR       8  -2  63 CALM      30.63R
SALINA         PTSUNNY   11   1  64 SE5       30.61R
TOPEKA BILLARD MOSUNNY    9   0  67 SE3       30.67R
TOPEKA FORBES  PTSUNNY    9  -1  64 E6        30.64R
$$



USA.gov is the U.S. government's official web portal to all federal, state and local government web resources and services.